Location: Six Mile Lake
(44.9000°N, 79.7170°W)
Time: 16:42:08
(UTC-04:00)

NOAA 18 - Pass Details

Date: 05 July 2022
Orbit: 839 x 860 km, 98.9° (Epoch: 11 August)

Event Time Altitude Azimuth Distance (km) Brightness Sun altitude
Exits shadow 22:55:52 19° 167° (SSE) 1,926 6.5 -14.5°
Maximum altitude 22:59:57 85° 253° (WSW) 866 5.2 -14.9°
Drops below altitude 10° 23:05:33 10° 345° (NNW) 2,505 8.9 -15.4°
Sets 23:07:56 0° 346° (NNW) 3,447 9.8 -15.7°
